Regional Weather Roundup
Issued by NWS

Home | Current Version | Previous Version | Graphics & Text | Print | Product List | Glossary On
Versions: 1 2 3 4 5 6 7 8 9 10 11 12 13 14 15 16 17 18 19 20 21 22 23 24 25 26 27 28 29 30 31 32 33 34 35 36 37 38 39 40 41 42 43 44 45 46 47 48 49 50
000
ASUS45 KCYS 022110
RWRWY

WYOMING REGIONAL WEATHER ROUNDUP
NATIONAL WEATHER SERVICE CHEYENNE WY
300 PM MDT WED SEP 02 2015

NOTE:  "FAIR" INDICATES FEW OR NO CLOUDS BELOW 12,000 FEET
WITH NO SIGNIFICANT WEATHER AND/OR OBSTRUCTIONS TO VISIBILITY.

WYZ001-022200-
YELLOWSTONE NATIONAL PARK

CITY           SKY/WX    TMP DP  RH WIND       PRES   REMARKS
LK YELLOWSTONE   N/A     71  31  22 VRB5      30.12F
W YELLOWSTONE  NOT AVBL

$$
WYZ002>013-054>058-071-098>099-022200-
NORTHERN WYOMING

CITY           SKY/WX    TMP DP  RH WIND       PRES   REMARKS
JACKSON        MOSUNNY   81  32  17 S15G31    30.03F
CODY           FAIR      88  30  12 SW12      29.86F
GREYBULL       FAIR      96  27   8 SE10G21   29.76F HX  90
WORLAND        FAIR      93  34  12 SW20      29.83F
SHERIDAN       FAIR      95  28   9 SW9       29.78F
BUFFALO        FAIR      94  31  10 S12G21    29.88F
GILLETTE       FAIR      94  31  10 SW20G25   29.84F
HULETT         FAIR      91  36  14 SW13G21   29.86F
NEWCASTLE      FAIR      93  34  12 SE9       29.87F

$$
WYZ014>020-022>026-101>103-022200-
CENTRAL WYOMING

CITY           SKY/WX    TMP DP  RH WIND       PRES   REMARKS
BIG PINEY      FAIR      82  34  17 W14G21    30.11F
PINEDALE       MOCLDY    79  28  15 S16G24    30.11F
DUBOIS         MOCLDY    75  28  17 NW8G17    30.07F
LANDER         FAIR      90  30  11 SW18G30   29.94F
RIVERTON       FAIR      89  29  11 SW18      29.94F
CASPER         FAIR      88  28  11 SW17G33   29.98F
DOUGLAS        FAIR      92  27   9 W13G23    29.96F

$$
WYZ021-027>030-104>119-022200-
SOUTHERN WYOMING

CITY           SKY/WX    TMP DP  RH WIND       PRES   REMARKS
EVANSTON       FAIR      78  37  22 SW22G33   30.15F
KEMMERER       FAIR      79  27  14 SW18G32   30.15F
FORT BRIDGER   MOCLDY    82  32  16 W23G31    30.16F
ROCK SPRINGS   PTSUNNY   78  33  19 SW13G23   30.11F
DIXON          MOCLDY    82  37  20 SW12G21   30.16F
RAWLINS        FAIR      84  34  16 S16G30    30.13F
SARATOGA       FAIR      79  34  19 SW10G23   30.17F
LARAMIE        PTSUNNY   77  36  22 NW7       30.17F
CHEYENNE       FAIR      84  35  17 W3        30.08F
TORRINGTON     FAIR      94  36  13 CALM      29.90F
PINE BLUFFS    FAIR      90  34  13 N3        30.02F

$$



USA.gov is the U.S. government's official web portal to all federal, state and local government web resources and services.